owner,sensor,date,latitude,longitude,vertical_datum,direction_of_sea_water_velocity,sea_water_speed,upward_sea_water_velocity,qcFlag 
ADCP,ioos:station:wmo:42368:1,2014-12-01T02:28:00Z,27.2040,-92.2030,73.9,59.0,19.2,0.9,'1111122,1111122,1111122' 
ADCP,ioos:station:wmo:42368:1,2014-12-01T03:28:00Z,27.2040,-92.2030,73.9,65.0,22.8,2.1,'1111122,1111122,1111122' 
ADCP,ioos:station:wmo:42368:1,2014-12-01T04:28:00Z,27.2040,-92.2030,73.9,72.0,24.0,2.3,'1111122,1111122,1111122' 
ADCP,ioos:station:wmo:42368:1,2014-12-01T05:28:00Z,27.2040,-92.2030,73.9,63.0,23.2,1.9,'1111122,1111122,1111122' 
ADCP,ioos:station:wmo:42368:1,2014-12-01T06:28:00Z,27.2040,-92.2030,73.9,61.0,21.3,1.3,'1111122,1111122,1111122' 
ADCP,ioos:station:wmo:42368:1,2014-12-01T07:28:00Z,27.2040,-92.2030,73.9,55.0,22.5,1.5,'1111122,1111122,1111122' 
ADCP,ioos:station:wmo:42368:1,2014-12-01T08:28:00Z,27.2040,-92.2030,73.9,60.0,21.9,0.5,'1111122,1111122,1111122' 
ADCP,ioos:station:wmo:42368:1,2014-12-01T09:28:00Z,27.2040,-92.2030,73.9,58.0,22.5,0.1,'1111122,1111122,1111122' 
ADCP,ioos:station:wmo:42368:1,2014-12-01T10:28:00Z,27.2040,-92.2030,73.9,65.0,22.7,1.3,'1111122,1111122,1111122' 
ADCP,ioos:station:wmo:42368:1,2014-12-01T11:28:00Z,27.2040,-92.2030,73.9,67.0,26.0,3.5,'1111122,1111122,1111122' 
ADCP,ioos:station:wmo:42368:1,2014-12-01T12:28:00Z,27.2040,-92.2030,73.9,83.0,18.1,-0.6,'1111122,1111122,1111122' 
ADCP,ioos:station:wmo:42368:1,2014-12-01T13:28:00Z,27.2040,-92.2030,73.9,87.0,17.5,-1.8,'1111122,1111122,1111122' 
ADCP,ioos:station:wmo:42368:1,2014-12-01T19:08:00Z,27.2040,-92.2030,73.9,77.0,14.1,-1.2,'1111122,1111122,1111122' 
ADCP,ioos:station:wmo:42368:1,2014-12-01T19:28:00Z,27.2040,-92.2030,73.9,73.0,15.0,0.0,'1111122,1111122,1114422' 
ADCP,ioos:station:wmo:42368:1,2014-12-01T20:28:00Z,27.2040,-92.2030,73.9,86.0,12.9,-2.1,'1111122,1111122,1111122' 
ADCP,ioos:station:wmo:42368:1,2014-12-01T21:28:00Z,27.2040,-92.2030,73.9,82.0,16.5,-1.8,'1111122,1111122,1111122' 
ADCP,ioos:station:wmo:42368:1,2014-12-01T22:28:00Z,27.2040,-92.2030,73.9,71.0,20.0,0.3,'1111122,1111122,1111122' 
ADCP,ioos:station:wmo:42368:1,2014-12-02T00:28:00Z,27.2040,-92.2030,73.9,69.0,19.6,-0.7,'1111122,1111122,1111122' 
ADCP,ioos:station:wmo:42368:1,2014-12-02T01:28:00Z,27.2040,-92.2030,73.9,66.0,16.9,-0.8,'1111122,1111122,1111122' 
ADCP,ioos:station:wmo:42368:1,2014-12-02T02:28:00Z,27.2040,-92.2030,73.9,54.0,22.9,3.8,'1111122,1111122,1111122' 
ADCP,ioos:station:wmo:42368:1,2014-12-02T03:28:00Z,27.2040,-92.2030,73.9,60.0,23.0,3.0,'1111122,1111122,1111122' 
ADCP,ioos:station:wmo:42368:1,2014-12-02T04:28:00Z,27.2040,-92.2030,73.9,63.0,19.7,2.7,'1111122,1111122,1111122' 
ADCP,ioos:station:wmo:42368:1,2014-12-02T05:28:00Z,27.2040,-92.2030,73.9,60.0,19.2,2.4,'1111122,1111122,1111122' 
ADCP,ioos:station:wmo:42368:1,2014-12-02T06:08:00Z,27.2040,-92.2030,73.9,57.0,19.7,2.6,'1111122,1111122,1111122' 
ADCP,ioos:station:wmo:42368:1,2014-12-02T07:28:00Z,27.2040,-92.2030,73.9,55.0,18.6,1.2,'1111122,1111122,1111122' 
ADCP,ioos:station:wmo:42368:1,2014-12-02T08:28:00Z,27.2040,-92.2030,73.9,51.0,18.4,2.1,'1111122,1111122,1111122' 
ADCP,ioos:station:wmo:42368:1,2014-12-02T09:28:00Z,27.2040,-92.2030,73.9,49.0,18.4,1.7,'1111122,1111122,1111122' 
ADCP,ioos:station:wmo:42368:1,2014-12-02T10:28:00Z,27.2040,-92.2030,73.9,49.0,20.5,3.2,'1111122,1111122,1111122' 
ADCP,ioos:station:wmo:42368:1,2014-12-02T11:28:00Z,27.2040,-92.2030,73.9,53.0,21.3,4.1,'1111122,1111122,1111122' 
ADCP,ioos:station:wmo:42368:1,2014-12-02T12:28:00Z,27.2040,-92.2030,73.8,47.0,15.2,1.4,'1111122,1111122,1111122' 
ADCP,ioos:station:wmo:42368:1,2014-12-02T13:28:00Z,27.2040,-92.2030,73.9,49.0,12.8,-0.7,'1111122,1111122,1111122' 
ADCP,ioos:station:wmo:42368:1,2014-12-02T14:28:00Z,27.2040,-92.2030,73.9,54.0,12.0,-0.5,'1111122,1111122,1111122' 
ADCP,ioos:station:wmo:42368:1,2014-12-02T15:28:00Z,27.2040,-92.2030,73.9,56.0,11.8,-2.1,'1111122,1111122,1111122' 
ADCP,ioos:station:wmo:42368:1,2014-12-02T16:28:00Z,27.2040,-92.2030,73.9,54.0,12.2,-2.6,'1111122,1111122,1111122' 
ADCP,ioos:station:wmo:42368:1,2014-12-02T17:28:00Z,27.2040,-92.2030,73.9,69.0,14.3,-0.6,'1111122,1111122,1111122' 
ADCP,ioos:station:wmo:42368:1,2014-12-02T18:28:00Z,27.2040,-92.2030,73.9,89.0,16.2,0.6,'1111122,1111122,1111122' 
ADCP,ioos:station:wmo:42368:1,2014-12-02T19:28:00Z,27.2040,-92.2030,73.9,94.0,13.5,-1.8,'1111122,1111122,1111122' 
ADCP,ioos:station:wmo:42368:1,2014-12-02T20:28:00Z,27.2040,-92.2030,73.9,83.0,15.1,-1.0,'1111122,1111122,1111122' 
ADCP,ioos:station:wmo:42368:1,2014-12-02T21:28:00Z,27.2040,-92.2030,73.9,84.0,18.1,-0.9,'1111122,1111122,1111122' 
ADCP,ioos:station:wmo:42368:1,2014-12-02T22:28:00Z,27.2040,-92.2030,73.9,80.0,16.6,0.0,'1111122,1111122,1114422' 
ADCP,ioos:station:wmo:42368:1,2014-12-02T23:28:00Z,27.2040,-92.2030,73.9,84.0,16.4,-1.3,'1111122,1111122,1111122' 
ADCP,ioos:station:wmo:42368:1,2014-12-03T00:28:00Z,27.2040,-92.2030,73.8,77.0,17.3,0.8,'1111122,1111122,1111122' 
ADCP,ioos:station:wmo:42368:1,2014-12-03T01:28:00Z,27.2040,-92.2030,73.8,86.0,16.1,0.9,'1111122,1111122,1111122' 
ADCP,ioos:station:wmo:42368:1,2014-12-03T02:28:00Z,27.2040,-92.2030,73.8,78.0,14.9,0.5,'1111122,1111122,1111122' 
ADCP,ioos:station:wmo:42368:1,2014-12-03T03:28:00Z,27.2040,-92.2030,73.9,79.0,13.9,0.0,'1111122,1111122,1114422' 
ADCP,ioos:station:wmo:42368:1,2014-12-03T04:28:00Z,27.2040,-92.2030,73.9,87.0,13.2,-1.7,'1111122,1111122,1111122' 
ADCP,ioos:station:wmo:42368:1,2014-12-03T05:28:00Z,27.2040,-92.2030,73.9,73.0,14.0,-0.9,'1111122,1111122,1111122' 
ADCP,ioos:station:wmo:42368:1,2014-12-03T06:28:00Z,27.2040,-92.2030,73.9,75.0,15.3,-0.2,'1111122,1111122,1111122' 
ADCP,ioos:station:wmo:42368:1,2014-12-03T07:28:00Z,27.2040,-92.2030,73.9,72.0,12.8,-0.3,'1111122,1111122,1111122' 
ADCP,ioos:station:wmo:42368:1,2014-12-03T08:28:00Z,27.2040,-92.2030,73.9,52.0,13.0,-0.2,'1111122,1111122,1111122' 
ADCP,ioos:station:wmo:42368:1,2014-12-03T09:28:00Z,27.2040,-92.2030,73.9,54.0,12.1,0.0,'1111122,1111122,1114422' 
ADCP,ioos:station:wmo:42368:1,2014-12-03T10:28:00Z,27.2040,-92.2030,73.9,51.0,15.6,0.9,'1111122,1111122,1111122' 
ADCP,ioos:station:wmo:42368:1,2014-12-03T11:28:00Z,27.2040,-92.2030,73.8,44.0,18.0,3.2,'1111122,1111122,1111122' 
ADCP,ioos:station:wmo:42368:1,2014-12-03T12:28:00Z,27.2040,-92.2030,73.9,55.0,11.5,-1.3,'1111122,1111122,1111122' 
ADCP,ioos:station:wmo:42368:1,2014-12-03T13:28:00Z,27.2040,-92.2030,73.9,61.0,10.5,-2.4,'1111122,1111122,1111122' 
ADCP,ioos:station:wmo:42368:1,2014-12-03T14:28:00Z,27.2040,-92.2030,73.9,50.0,10.9,-1.8,'1111122,1111122,1111122' 
ADCP,ioos:station:wmo:42368:1,2014-12-03T15:38:00Z,27.2040,-92.2030,73.9,66.0,11.2,-2.4,'1111122,1111122,1111122' 
ADCP,ioos:station:wmo:42368:1,2014-12-03T17:28:00Z,27.2040,-92.2030,73.9,73.0,12.6,-2.1,'1111122,1111122,1111122' 
ADCP,ioos:station:wmo:42368:1,2014-12-03T18:28:00Z,27.2040,-92.2030,73.9,80.0,11.0,-1.5,'1111122,1111122,1111122' 
ADCP,ioos:station:wmo:42368:1,2014-12-03T19:28:00Z,27.2040,-92.2030,73.9,92.0,11.9,-2.2,'1111122,1111122,1111122' 
ADCP,ioos:station:wmo:42368:1,2014-12-03T20:28:00Z,27.2040,-92.2030,73.9,88.0,15.0,-3.4,'1111122,1111122,1111122' 
ADCP,ioos:station:wmo:42368:1,2014-12-03T21:28:00Z,27.2040,-92.2030,73.9,87.0,17.8,-2.1,'1111122,1111122,1111122' 
ADCP,ioos:station:wmo:42368:1,2014-12-03T22:28:00Z,27.2040,-92.2030,73.9,91.0,20.5,-2.0,'1111122,1111122,1111122' 
ADCP,ioos:station:wmo:42368:1,2014-12-03T23:28:00Z,27.2040,-92.2030,73.9,88.0,20.6,-1.9,'1111122,1111122,1111122' 
ADCP,ioos:station:wmo:42368:1,2014-12-04T00:28:00Z,27.2040,-92.2030,73.9,89.0,18.9,-0.6,'1111122,1111122,1111122' 
ADCP,ioos:station:wmo:42368:1,2014-12-04T02:28:00Z,27.2040,-92.2030,73.9,91.0,17.6,-0.8,'1111122,1111122,1111122' 
ADCP,ioos:station:wmo:42368:1,2014-12-04T03:28:00Z,27.2040,-92.2030,73.9,88.0,16.4,-1.4,'1111122,1111122,1111122' 
ADCP,ioos:station:wmo:42368:1,2014-12-04T04:28:00Z,27.2040,-92.2030,73.9,83.0,15.5,0.0,'1111122,1111122,1114422' 
ADCP,ioos:station:wmo:42368:1,2014-12-04T05:28:00Z,27.2040,-92.2030,73.9,84.0,14.4,0.6,'1111122,1111122,1111122' 
ADCP,ioos:station:wmo:42368:1,2014-12-04T06:28:00Z,27.2040,-92.2030,73.9,89.0,15.2,-1.0,'1111122,1111122,1111122' 
ADCP,ioos:station:wmo:42368:1,2014-12-04T07:28:00Z,27.2040,-92.2030,73.9,83.0,10.1,-1.9,'1111122,1111122,1111122' 
ADCP,ioos:station:wmo:42368:1,2014-12-04T09:28:00Z,27.2040,-92.2030,73.9,69.0,12.7,0.3,'1111122,1111122,1111122' 
ADCP,ioos:station:wmo:42368:1,2014-12-04T10:28:00Z,27.2040,-92.2030,73.9,76.0,13.4,1.1,'1111122,1111122,1111122' 
ADCP,ioos:station:wmo:42368:1,2014-12-04T12:28:00Z,27.2040,-92.2030,73.9,68.0,9.6,-2.0,'1111122,1111122,1111122' 
ADCP,ioos:station:wmo:42368:1,2014-12-04T13:28:00Z,27.2040,-92.2030,73.9,48.0,9.7,-1.8,'1111122,1111122,1111122' 
ADCP,ioos:station:wmo:42368:1,2014-12-04T14:28:00Z,27.2040,-92.2030,73.9,50.0,8.5,-1.5,'1111122,1111122,1111122' 
ADCP,ioos:station:wmo:42368:1,2014-12-04T15:28:00Z,27.2040,-92.2030,73.9,30.0,7.8,-1.5,'1111122,1111122,1111122' 
ADCP,ioos:station:wmo:42368:1,2014-12-04T16:28:00Z,27.2040,-92.2030,73.9,61.0,7.7,-2.4,'1111122,1111122,1111122' 
ADCP,ioos:station:wmo:42368:1,2014-12-04T17:28:00Z,27.2040,-92.2030,73.9,51.0,6.7,-2.3,'1111122,1111122,1111122' 
ADCP,ioos:station:wmo:42368:1,2014-12-04T18:28:00Z,27.2040,-92.2030,73.9,60.0,9.3,-2.5,'1111122,1111122,1111122' 
ADCP,ioos:station:wmo:42368:1,2014-12-04T19:38:00Z,27.2040,-92.2030,73.9,73.0,9.9,-2.0,'1111122,1111122,1111122' 
ADCP,ioos:station:wmo:42368:1,2014-12-04T20:28:00Z,27.2040,-92.2030,73.9,94.0,10.5,-2.7,'1111122,1111122,1111122' 
ADCP,ioos:station:wmo:42368:1,2014-12-04T21:28:00Z,27.2040,-92.2030,73.9,97.0,11.8,-3.6,'1111122,1111122,1111122' 
ADCP,ioos:station:wmo:42368:1,2014-12-04T22:28:00Z,27.2040,-92.2030,73.9,86.0,16.3,-1.9,'1111122,1111122,1111122' 
ADCP,ioos:station:wmo:42368:1,2014-12-04T23:28:00Z,27.2040,-92.2030,73.9,90.0,15.6,-3.8,'1111122,1111122,1111122' 
ADCP,ioos:station:wmo:42368:1,2014-12-05T00:28:00Z,27.2040,-92.2030,73.9,84.0,17.5,-2.0,'1111122,1111122,1111122' 
ADCP,ioos:station:wmo:42368:1,2014-12-05T01:28:00Z,27.2040,-92.2030,73.9,86.0,17.5,-0.8,'1111122,1111122,1111122' 
ADCP,ioos:station:wmo:42368:1,2014-12-05T02:28:00Z,27.2040,-92.2030,73.9,92.0,16.6,-1.5,'1111122,1111122,1111122' 
ADCP,ioos:station:wmo:42368:1,2014-12-05T03:28:00Z,27.2040,-92.2030,73.9,106.0,15.6,-0.2,'1111122,1111122,1111122' 
ADCP,ioos:station:wmo:42368:1,2014-12-05T04:28:00Z,27.2040,-92.2030,73.9,90.0,16.1,-0.5,'1111122,1111122,1111122' 
ADCP,ioos:station:wmo:42368:1,2014-12-05T05:28:00Z,27.2040,-92.2030,73.9,85.0,17.0,-0.5,'1111122,1111122,1111122' 
ADCP,ioos:station:wmo:42368:1,2014-12-05T06:28:00Z,27.2040,-92.2030,73.9,75.0,13.9,-0.8,'1111122,1111122,1111122' 
ADCP,ioos:station:wmo:42368:1,2014-12-05T06:38:00Z,27.2040,-92.2030,73.9,71.0,14.4,0.1,'1111122,1111122,1111122' 
ADCP,ioos:station:wmo:42368:1,2014-12-05T08:28:00Z,27.2040,-92.2030,73.9,74.0,14.6,1.5,'1111122,1111122,1111122' 
ADCP,ioos:station:wmo:42368:1,2014-12-05T09:28:00Z,27.2040,-92.2030,73.9,71.0,13.5,1.4,'1111122,1111122,1111122' 
ADCP,ioos:station:wmo:42368:1,2014-12-05T10:28:00Z,27.2040,-92.2030,73.9,74.0,15.3,1.6,'1111122,1111122,1111122' 
ADCP,ioos:station:wmo:42368:1,2014-12-05T11:28:00Z,27.2040,-92.2030,73.9,69.0,15.7,2.0,'1111122,1111122,1111122' 
ADCP,ioos:station:wmo:42368:1,2014-12-05T12:28:00Z,27.2040,-92.2030,73.9,87.0,9.0,-2.4,'1111122,1111122,1111122' 
ADCP,ioos:station:wmo:42368:1,2014-12-05T13:28:00Z,27.2040,-92.2030,73.9,46.0,7.1,-2.4,'1111122,1111122,1111122' 
ADCP,ioos:station:wmo:42368:1,2014-12-05T14:28:00Z,27.2040,-92.2030,73.9,53.0,5.5,-1.5,'1111122,1111122,1111122' 
ADCP,ioos:station:wmo:42368:1,2014-12-05T15:28:00Z,27.2040,-92.2030,73.9,23.0,8.1,-1.4,'1111122,1111122,1111122' 
ADCP,ioos:station:wmo:42368:1,2014-12-05T16:28:00Z,27.2040,-92.2030,73.9,5.0,7.5,-0.9,'1111122,1111122,1111122' 
ADCP,ioos:station:wmo:42368:1,2014-12-05T17:28:00Z,27.2040,-92.2030,73.9,45.0,7.9,-2.6,'1111122,1111122,1111122' 
ADCP,ioos:station:wmo:42368:1,2014-12-05T18:27:00Z,27.2040,-92.2030,73.9,50.0,5.1,-3.1,'1111122,1111122,1111122' 
ADCP,ioos:station:wmo:42368:1,2014-12-05T19:27:00Z,27.2040,-92.2030,73.9,55.0,6.7,-2.9,'1111122,1111122,1111122' 
ADCP,ioos:station:wmo:42368:1,2014-12-05T20:27:00Z,27.2040,-92.2030,73.9,69.0,9.2,-3.1,'1111122,1111122,1111122' 
ADCP,ioos:station:wmo:42368:1,2014-12-05T21:27:00Z,27.2040,-92.2030,73.9,87.0,11.8,-2.5,'1111122,1111122,1111122' 
ADCP,ioos:station:wmo:42368:1,2014-12-05T22:27:00Z,27.2040,-92.2030,73.9,94.0,14.2,-1.8,'1111122,1111122,1111122' 
ADCP,ioos:station:wmo:42368:1,2014-12-05T23:27:00Z,27.2040,-92.2030,73.9,107.0,21.4,-2.6,'1111122,1111122,1111122' 
ADCP,ioos:station:wmo:42368:1,2014-12-06T00:27:00Z,27.2040,-92.2030,73.9,110.0,21.5,-2.6,'1111122,1111122,1111122' 
ADCP,ioos:station:wmo:42368:1,2014-12-06T01:27:00Z,27.2040,-92.2030,73.9,110.0,25.2,-2.2,'1111122,1111122,1111122' 
ADCP,ioos:station:wmo:42368:1,2014-12-06T02:27:00Z,27.2040,-92.2030,73.9,111.0,24.1,-1.4,'1111122,1111122,1111122' 
ADCP,ioos:station:wmo:42368:1,2014-12-06T03:27:00Z,27.2040,-92.2030,73.9,113.0,23.4,-1.1,'1111122,1111122,1111122' 
ADCP,ioos:station:wmo:42368:1,2014-12-06T04:27:00Z,27.2040,-92.2030,73.9,117.0,25.5,-2.2,'1111122,1111122,1111122' 
ADCP,ioos:station:wmo:42368:1,2014-12-06T05:27:00Z,27.2040,-92.2030,73.9,116.0,22.4,-1.9,'1111122,1111122,1111122' 
ADCP,ioos:station:wmo:42368:1,2014-12-06T06:07:00Z,27.2040,-92.2030,73.9,114.0,21.3,-2.3,'1111122,1111122,1111122' 
ADCP,ioos:station:wmo:42368:1,2014-12-06T09:27:00Z,27.2040,-92.2030,73.9,106.0,15.9,0.2,'1111122,1111122,1111122' 
ADCP,ioos:station:wmo:42368:1,2014-12-06T10:27:00Z,27.2040,-92.2030,73.9,95.0,15.1,0.4,'1111122,1111122,1111122' 
ADCP,ioos:station:wmo:42368:1,2014-12-06T11:27:00Z,27.2040,-92.2030,73.9,86.0,14.0,1.4,'1111122,1111122,1111122' 
ADCP,ioos:station:wmo:42368:1,2014-12-06T12:27:00Z,27.2040,-92.2030,73.9,100.0,10.9,-1.0,'1111122,1111122,1111122' 
ADCP,ioos:station:wmo:42368:1,2014-12-06T13:27:00Z,27.2040,-92.2030,73.9,94.0,8.1,-2.6,'1111122,1111122,1111122' 
ADCP,ioos:station:wmo:42368:1,2014-12-06T15:27:00Z,27.2040,-92.2030,73.9,38.0,5.7,-0.4,'1111122,1111122,1111122' 
ADCP,ioos:station:wmo:42368:1,2014-12-06T16:27:00Z,27.2040,-92.2030,73.9,62.0,7.1,-1.6,'1111122,1111122,1111122' 
ADCP,ioos:station:wmo:42368:1,2014-12-06T17:27:00Z,27.2040,-92.2030,73.9,66.0,5.1,-1.5,'1111122,1111122,1111122' 
ADCP,ioos:station:wmo:42368:1,2014-12-06T18:27:00Z,27.2040,-92.2030,73.9,58.0,7.1,-2.8,'1111122,1111122,1111122' 
ADCP,ioos:station:wmo:42368:1,2014-12-06T19:27:00Z,27.2040,-92.2030,73.9,83.0,9.7,-2.3,'1111122,1111122,1111122' 
ADCP,ioos:station:wmo:42368:1,2014-12-06T20:27:00Z,27.2040,-92.2030,73.9,83.0,9.6,-2.0,'1111122,1111122,1111122' 
ADCP,ioos:station:wmo:42368:1,2014-12-06T21:27:00Z,27.2040,-92.2030,73.9,98.0,16.3,-3.6,'1111122,1111122,1111122' 
ADCP,ioos:station:wmo:42368:1,2014-12-06T22:27:00Z,27.2040,-92.2030,73.9,93.0,19.6,-2.3,'1111122,1111122,1111122' 
ADCP,ioos:station:wmo:42368:1,2014-12-06T23:27:00Z,27.2040,-92.2030,73.9,105.0,20.3,-4.0,'1111122,1111122,1111122' 
ADCP,ioos:station:wmo:42368:1,2014-12-07T00:27:00Z,27.2040,-92.2030,73.9,103.0,22.4,-2.6,'1111122,1111122,1111122' 
ADCP,ioos:station:wmo:42368:1,2014-12-07T01:27:00Z,27.2040,-92.2030,73.9,100.0,20.6,-1.7,'1111122,1111122,1111122' 
ADCP,ioos:station:wmo:42368:1,2014-12-07T02:27:00Z,27.2040,-92.2030,73.9,107.0,17.9,-1.2,'1111122,1111122,1111122' 
ADCP,ioos:station:wmo:42368:1,2014-12-07T03:27:00Z,27.2040,-92.2030,73.9,103.0,18.5,-0.3,'1111122,1111122,1111122' 
ADCP,ioos:station:wmo:42368:1,2014-12-07T04:27:00Z,27.2040,-92.2030,73.9,112.0,17.1,-1.4,'1111122,1111122,1111122' 
ADCP,ioos:station:wmo:42368:1,2014-12-07T05:27:00Z,27.2040,-92.2030,73.9,112.0,19.4,-1.1,'1111122,1111122,1111122' 
ADCP,ioos:station:wmo:42368:1,2014-12-07T06:27:00Z,27.2040,-92.2030,73.9,117.0,18.9,-1.8,'1111122,1111122,1111122' 
ADCP,ioos:station:wmo:42368:1,2014-12-07T07:27:00Z,27.2040,-92.2030,73.9,109.0,16.6,-1.4,'1111122,1111122,1111122' 
ADCP,ioos:station:wmo:42368:1,2014-12-07T10:27:00Z,27.2040,-92.2030,73.9,110.0,12.8,-1.7,'1111122,1111122,1111122' 
ADCP,ioos:station:wmo:42368:1,2014-12-07T11:27:00Z,27.2040,-92.2030,73.8,110.0,14.3,-0.1,'1111122,1111122,1111122' 
ADCP,ioos:station:wmo:42368:1,2014-12-07T12:27:00Z,27.2040,-92.2030,73.8,125.0,9.7,-2.0,'1111122,1111122,1111122' 
ADCP,ioos:station:wmo:42368:1,2014-12-07T13:27:00Z,27.2040,-92.2030,73.8,107.0,7.2,-2.4,'1111122,1111122,1111122' 
ADCP,ioos:station:wmo:42368:1,2014-12-07T14:27:00Z,27.2040,-92.2030,73.8,118.0,9.3,-2.2,'1111122,1111122,1111122' 
ADCP,ioos:station:wmo:42368:1,2014-12-07T15:27:00Z,27.2040,-92.2030,73.8,112.0,7.4,-1.7,'1111122,1111122,1111122' 
ADCP,ioos:station:wmo:42368:1,2014-12-07T16:27:00Z,27.2040,-92.2030,73.8,114.0,4.8,-2.5,'1111122,1111122,1111122' 
ADCP,ioos:station:wmo:42368:1,2014-12-07T17:27:00Z,27.2040,-92.2030,73.8,119.0,4.9,-3.6,'1111122,1111122,1111122' 
ADCP,ioos:station:wmo:42368:1,2014-12-07T18:27:00Z,27.2040,-92.2030,73.9,92.0,5.7,-2.3,'1111122,1111122,1111122' 
ADCP,ioos:station:wmo:42368:1,2014-12-07T19:27:00Z,27.2040,-92.2030,73.9,94.0,5.5,-3.5,'1111122,1111122,1111122' 
ADCP,ioos:station:wmo:42368:1,2014-12-07T20:27:00Z,27.2040,-92.2030,73.8,67.0,3.6,-2.8,'1111122,1111122,1111122' 
ADCP,ioos:station:wmo:42368:1,2014-12-07T21:27:00Z,27.2040,-92.2030,73.8,75.0,6.5,-2.0,'1111122,1111122,1111122' 
ADCP,ioos:station:wmo:42368:1,2014-12-07T22:27:00Z,27.2040,-92.2030,73.9,94.0,6.0,-2.2,'1111122,1111122,1111122' 
ADCP,ioos:station:wmo:42368:1,2014-12-07T23:27:00Z,27.2040,-92.2030,73.9,78.0,8.7,-2.6,'1111122,1111122,1111122' 
ADCP,ioos:station:wmo:42368:1,2014-12-08T00:27:00Z,27.2040,-92.2030,73.9,67.0,10.5,-1.3,'1111122,1111122,1111122' 
ADCP,ioos:station:wmo:42368:1,2014-12-08T01:27:00Z,27.2040,-92.2030,73.9,64.0,11.1,-0.2,'1111122,1111122,1111122' 
ADCP,ioos:station:wmo:42368:1,2014-12-08T02:27:00Z,27.2040,-92.2030,73.9,87.0,12.1,-0.3,'1111122,1111122,1111122' 
ADCP,ioos:station:wmo:42368:1,2014-12-08T03:27:00Z,27.2040,-92.2030,73.9,98.0,14.8,-0.3,'1111122,1111122,1111122' 
ADCP,ioos:station:wmo:42368:1,2014-12-08T04:27:00Z,27.2040,-92.2030,73.9,109.0,16.5,-0.2,'1111122,1111122,1111122' 
ADCP,ioos:station:wmo:42368:1,2014-12-08T05:27:00Z,27.2040,-92.2030,73.9,103.0,16.1,0.6,'1111122,1111122,1111122' 
ADCP,ioos:station:wmo:42368:1,2014-12-08T06:27:00Z,27.2040,-92.2030,73.9,121.0,16.5,-1.0,'1111122,1111122,1111122' 
ADCP,ioos:station:wmo:42368:1,2014-12-08T07:27:00Z,27.2040,-92.2030,73.9,120.0,16.2,-1.7,'1111122,1111122,1111122' 
ADCP,ioos:station:wmo:42368:1,2014-12-08T08:27:00Z,27.2040,-92.2030,73.9,117.0,14.7,-0.4,'1111122,1111122,1111122' 
ADCP,ioos:station:wmo:42368:1,2014-12-08T09:27:00Z,27.2040,-92.2030,73.9,115.0,12.2,0.0,'1111122,1111122,1114422' 
ADCP,ioos:station:wmo:42368:1,2014-12-08T10:27:00Z,27.2040,-92.2030,73.9,116.0,12.2,-1.8,'1111122,1111122,1111122' 
ADCP,ioos:station:wmo:42368:1,2014-12-08T11:27:00Z,27.2040,-92.2030,73.9,110.0,6.2,-0.7,'1111122,1111122,1111122' 
ADCP,ioos:station:wmo:42368:1,2014-12-08T12:27:00Z,27.2040,-92.2030,73.9,124.0,9.2,-1.2,'1111122,1111122,1111122' 
ADCP,ioos:station:wmo:42368:1,2014-12-08T13:27:00Z,27.2040,-92.2030,73.9,141.0,6.6,-2.4,'1111122,1111122,1111122' 
ADCP,ioos:station:wmo:42368:1,2014-12-08T15:27:00Z,27.2040,-92.2030,73.8,118.0,8.1,-1.8,'1111122,1111122,1111122' 
ADCP,ioos:station:wmo:42368:1,2014-12-08T16:27:00Z,27.2040,-92.2030,73.9,120.0,6.1,-1.0,'1111122,1111122,1111122' 
ADCP,ioos:station:wmo:42368:1,2014-12-08T17:27:00Z,27.2040,-92.2030,73.9,146.0,6.9,-2.3,'1111122,1111122,1111122' 
ADCP,ioos:station:wmo:42368:1,2014-12-08T18:27:00Z,27.2040,-92.2030,73.8,108.0,3.9,-1.0,'1111122,1111122,1111122' 
ADCP,ioos:station:wmo:42368:1,2014-12-08T19:27:00Z,27.2040,-92.2030,73.8,135.0,3.8,-2.6,'1111122,1111122,1111122' 
ADCP,ioos:station:wmo:42368:1,2014-12-08T20:27:00Z,27.2040,-92.2030,73.9,85.0,3.2,-2.4,'1111122,1111122,1111122' 
ADCP,ioos:station:wmo:42368:1,2014-12-08T21:27:00Z,27.2040,-92.2030,73.9,109.0,6.5,-2.9,'1111122,1111122,1111122' 
ADCP,ioos:station:wmo:42368:1,2014-12-08T22:27:00Z,27.2040,-92.2030,73.9,112.0,7.7,-2.6,'1111122,1111122,1111122' 
ADCP,ioos:station:wmo:42368:1,2014-12-08T23:27:00Z,27.2040,-92.2030,73.9,95.0,6.3,-1.0,'1111122,1111122,1111122' 
ADCP,ioos:station:wmo:42368:1,2014-12-09T00:27:00Z,27.2040,-92.2030,73.9,64.0,7.1,-1.3,'1111122,1111122,1111122' 
ADCP,ioos:station:wmo:42368:1,2014-12-09T01:27:00Z,27.2040,-92.2030,73.9,91.0,8.5,-1.7,'1111122,1111122,1111122' 
ADCP,ioos:station:wmo:42368:1,2014-12-09T02:27:00Z,27.2040,-92.2030,73.9,63.0,5.8,-3.0,'1111122,1111122,1111122' 
ADCP,ioos:station:wmo:42368:1,2014-12-09T04:27:00Z,27.2040,-92.2030,73.9,105.0,8.4,-1.9,'1111122,1111122,1111122' 
ADCP,ioos:station:wmo:42368:1,2014-12-09T05:27:00Z,27.2040,-92.2030,73.9,90.0,6.6,-3.3,'1111122,1111122,1111122' 
ADCP,ioos:station:wmo:42368:1,2014-12-09T06:27:00Z,27.2040,-92.2030,73.9,100.0,9.5,-1.4,'1111122,1111122,1111122' 
ADCP,ioos:station:wmo:42368:1,2014-12-09T07:27:00Z,27.2040,-92.2030,73.9,91.0,11.1,-2.1,'1111122,1111122,1111122' 
ADCP,ioos:station:wmo:42368:1,2014-12-09T08:27:00Z,27.2040,-92.2030,73.9,100.0,8.9,-1.9,'1111122,1111122,1111122' 
ADCP,ioos:station:wmo:42368:1,2014-12-09T09:27:00Z,27.2040,-92.2030,73.9,106.0,8.1,-2.5,'1111122,1111122,1111122' 
ADCP,ioos:station:wmo:42368:1,2014-12-09T10:27:00Z,27.2040,-92.2030,73.9,90.0,11.9,0.3,'1111122,1111122,1111122' 
ADCP,ioos:station:wmo:42368:1,2014-12-09T11:27:00Z,27.2040,-92.2030,73.9,78.0,8.9,-1.0,'1111122,1111122,1111122' 
ADCP,ioos:station:wmo:42368:1,2014-12-09T13:27:00Z,27.2040,-92.2030,73.9,96.0,7.2,-0.9,'1111122,1111122,1111122' 
ADCP,ioos:station:wmo:42368:1,2014-12-09T14:27:00Z,27.2040,-92.2030,73.8,124.0,9.7,-1.5,'1111122,1111122,1111122' 
ADCP,ioos:station:wmo:42368:1,2014-12-09T15:27:00Z,27.2040,-92.2030,73.9,111.0,7.7,-1.2,'1111122,1111122,1111122' 
ADCP,ioos:station:wmo:42368:1,2014-12-09T16:27:00Z,27.2040,-92.2030,73.9,109.0,7.0,-2.3,'1111122,1111122,1111122' 
ADCP,ioos:station:wmo:42368:1,2014-12-09T17:27:00Z,27.2040,-92.2030,73.9,120.0,7.5,-2.0,'1111122,1111122,1111122' 
ADCP,ioos:station:wmo:42368:1,2014-12-09T18:27:00Z,27.2040,-92.2030,73.9,113.0,10.4,-1.6,'1111122,1111122,1111122' 
ADCP,ioos:station:wmo:42368:1,2014-12-09T19:27:00Z,27.2040,-92.2030,73.8,117.0,10.2,-3.3,'1111122,1111122,1111122' 
ADCP,ioos:station:wmo:42368:1,2014-12-09T20:27:00Z,27.2040,-92.2030,73.8,96.0,2.8,-2.9,'1111122,1111122,1111122' 
ADCP,ioos:station:wmo:42368:1,2014-12-09T21:27:00Z,27.2040,-92.2030,73.8,117.0,11.1,-2.3,'1111122,1111122,1111122' 
ADCP,ioos:station:wmo:42368:1,2014-12-09T22:27:00Z,27.2040,-92.2030,73.9,118.0,13.4,-2.6,'1111122,1111122,1111122' 
ADCP,ioos:station:wmo:42368:1,2014-12-09T23:27:00Z,27.2040,-92.2030,73.9,89.0,8.8,-3.6,'1111122,1111122,1111122' 
ADCP,ioos:station:wmo:42368:1,2014-12-10T00:27:00Z,27.2040,-92.2030,73.9,94.0,9.6,-0.2,'1111122,1111122,1111122' 
ADCP,ioos:station:wmo:42368:1,2014-12-10T01:27:00Z,27.2040,-92.2030,73.9,95.0,10.5,-1.0,'1111122,1111122,1111122' 
ADCP,ioos:station:wmo:42368:1,2014-12-10T02:27:00Z,27.2040,-92.2030,73.9,98.0,8.8,0.1,'1111122,1111122,1111122' 
ADCP,ioos:station:wmo:42368:1,2014-12-10T03:27:00Z,27.2040,-92.2030,73.9,102.0,8.5,-2.3,'1111122,1111122,1111122' 
ADCP,ioos:station:wmo:42368:1,2014-12-10T04:27:00Z,27.2040,-92.2030,73.9,101.0,11.3,-1.6,'1111122,1111122,1111122' 
ADCP,ioos:station:wmo:42368:1,2014-12-10T05:27:00Z,27.2040,-92.2030,73.8,119.0,12.0,-1.4,'1111122,1111122,1111122' 
ADCP,ioos:station:wmo:42368:1,2014-12-10T06:27:00Z,27.2040,-92.2030,73.9,124.0,11.8,-2.1,'1111122,1111122,1111122' 
ADCP,ioos:station:wmo:42368:1,2014-12-10T07:27:00Z,27.2040,-92.2030,73.9,137.0,8.8,-1.5,'1111122,1111122,1111122' 
ADCP,ioos:station:wmo:42368:1,2014-12-10T08:27:00Z,27.2040,-92.2030,73.9,127.0,10.7,-1.6,'1111122,1111122,1111122' 
ADCP,ioos:station:wmo:42368:1,2014-12-10T09:27:00Z,27.2040,-92.2030,73.9,118.0,9.9,-2.0,'1111122,1111122,1111122' 
ADCP,ioos:station:wmo:42368:1,2014-12-10T10:27:00Z,27.2040,-92.2030,73.9,114.0,9.7,-0.6,'1111122,1111122,1111122' 